Find OneWeb SL0050

NORAD ID: 45453 Int'l Des: 2020-020 Owner: ONEWEB Country: UK Constellation: oneweb operational
LEOCIRCULARPOLAR

当前视图

正在加载3D地球...

关于 OneWeb SL0050

正在加载描述...

即将过境

Passes for default location (London). Set your location on the main map for personalized predictions.

高度历史

Loading altitude history...

两行轨道根数

1 45453U 20020AF 26149.74496352 .00002789 00000-0 28516-3 0 9998
2 45453 88.9304 235.7130 0005567 64.8102 295.3704 14.90287153337632
Epoch: May 29, 2026 • Age: 21 hours

当前状态

高度 600.2 km
速度 7.57 km/s
星下点 44.52°N, 123.09°E
发射日期 Mar 21, 2020
运行时间 6.1 years
类型 internet

技术详情

分类 Payload
质量 148.00 kg
干质量 140.00 kg
总质量 148.00 kg
长度 1.30 m
直径 1.00 m
跨度 5.00 m
形状 Trapezoid+2 pan
制造商 ONEWUS
平台类型 ARROW
阶段状态 In Orbit
所有者/国家 ONEWEB/UK

Most Searched